STARLINK-33806, 63723

Orbit data source: Space-Track

STARLINK-33806, 63723 is a payload satellite owned by SpaceX/Seattle (US) in LEO that was launched on Mon, 28 Apr 2025 UTC via an FALCON 9 launch vehicle from the Air Force Western Test Range (AFWTR). Payload-class satellites include a variety of spacecraft equipped with specific instruments for various scientific and technological missions. These include communications satellites like Starlink; space stations such as the ISS; scientific satellites like the Hubble; Earth observation satellites from companies like Planet Labs, Umbra, and HawkEye 360; GPS; miniature CubeSats for education and research; and military/defense satellites.

Loading next visibility...
Identifier
63723, 2025-087AC
Orbit
LEO
Country
Flag of USUS
Related business
Manufacturer
SpaceX/Seattle
Mission
Operational Commercial Communications
Bus & Motor
STARLINK V2MO, Unknown motor
Mass
575 kg wet, ~530 kg dry
Launch date (UTC)
2025-04-28 (8 months ago)
Launch vehicle
FALCON 9
Launch site
Air Force Western Test Range (AFWTR)
Object type
Payload
Rocket body
Debris
Shape & HBR
Box + 2 Pan, 17.7 m
Radar Cross Section
36.964 m², Large (>1 m²)

Expand to show TLE details & history
Last TLE update: 16 hours ago

TLE from 16 hours ago
0 STARLINK-33806
1 63723U 25087AC  25348.93263929  .00014454  00000-0  49947-3 0  9992
2 63723  53.1597 253.1931 0001711  56.7088 303.4076 15.30180501 36221
Epoch: 2025-12-14T22:23Z
TLE epoch observation values (Epoch: 2025-12-14T22:23:00.034Z)
Latitude
-0.00007°
Longitude
-166.39555°
Altitude
475.527 km
Speed
7.63 km/s
True Right ascension
16h 52m 46s
True Declination
0° 00' 00"
Sunlit
Object was in daylight at epoch
Visualization orbit readout
Latitude
Unknown
Longitude
Unknown
Altitude
Unknown
Speed
Unknown
Apparent Right ascension
Unknown
Apparent Declination
Unknown
Sunlit
N/A
Visualization observer readout
Local Sidereal Time
13:23:46
Azimuth
Unknown
Elevation
Unknown
Doppler factor
Unknown
Orbital elements
Apogee altitude
476.702 km
Perigee altitude
474.357 km
Semi-major axis
6,853.667 km
Eccentricity
0.00017
Inclination
53.1597°
RAAN
253.1931°
Arg. of periapsis
56.7088°
True anomaly
303.39123°
Mean anomaly
303.4076°
Eccentric anomaly
303.39942°
Mean motion
3.82524 °/min
Orbital period
94.11 mins
BSTAR
0.00049947
Loading maneuver chart data...
Computing Atmospheric mass density...
Loading historical data...
Loading historical data...
Loading historical data...
Loading historical data...
Loading historical data...
Loading historical data...
Loading historical data...

Documentation

Showing up to 5 results
|